Weather History for Monett, MO

Change the Weather History Date:

Thursday, September 13, 2012

  Actual Average (KJLN) Record (KJLN)
Temperature  
Mean Temperature 70 °F 72 °F  
Max Temperature 80 °F 83 °F 100 °F (2011)
Min Temperature 57 °F 61 °F 47 °F (1960)
Degree Days  
Heating Degree Days 0 1  
Month to date heating degree days 2  
Since 1 July heating degree days 3  
Cooling Degree Days 4 8  
Month to date cooling degree days 126  
Year to date cooling degree days 1553  
Growing Degree Days 20 (Base 50)    
Moisture  
Dew Point 60 °F    
Average Humidity 75    
Maximum Humidity 94    
Minimum Humidity 57    
Precipitation  
Precipitation 0.03 in 0.18 in 3.06 in (1993)
Month to date precipitation 2.12  
Year to date precipitation 33.09  
Sea Level Pressure  
Sea Level Pressure 30.17 in    
Wind  
Wind Speed 8 mph (ENE)    
Max Wind Speed 16 mph    
Max Gust Speed 24 mph    
Visibility 10 miles    
Events Rain , Thunderstorm    
T = Trace of Precipitation, MM = Missing Value Source: NWS Daily Summary

Daily Weather History Graph

Daily Weather History Graph

Search for Another Location

Airport:

Trip Planner

Search our weather history database for the weather conditions in past years. The results will help you decide how hot, cold, wet, or windy it might be!

Date:

Astronomy

Sep. 13, 2012 Rise Set
Actual Time 6:57 AM CDT 7:25 PM CDT
Civil Twilight 6:30 AM CDT 7:51 PM CDT
Nautical Twilight 6:00 AM CDT 8:22 PM CDT
Astronomical Twilight 5:29 AM CDT 8:53 PM CDT
Moon 4:20 AM CDT (9/13) 5:47 PM CDT (9/13)
Length of Visible Light 13h 20m
Length of Day
12h 28m
Waning Crescent, 7% of the Moon is Illuminated
Sep 13
Waning Crescent
Sep 15
New
Sep 22
First Quarter
Sep 29
Full
Oct 8
Last Quarter

Hourly Weather History & Observations

Time (CDT) Temp. Heat Index Dew Point Humidity Pressure Visibility Wind Dir Wind Speed Gust Speed Precip Events Conditions
12:15 AM 68.0 °F - 57.2 °F 68% 30.12 in 10.0 mi SE 6.9 mph - N/A   Clear
12:35 AM 68.0 °F - 59.0 °F 73% 30.12 in 10.0 mi SE 8.1 mph - N/A   Clear
12:55 AM 68.0 °F - 59.0 °F 73% 30.12 in 10.0 mi SE 8.1 mph - N/A   Clear
1:15 AM 68.0 °F - 59.0 °F 73% 30.12 in 10.0 mi SSE 8.1 mph - N/A   Clear
1:35 AM 66.2 °F - 59.0 °F 78% 30.12 in 10.0 mi SE 6.9 mph - N/A   Clear
1:55 AM 64.4 °F - 59.0 °F 83% 30.12 in 10.0 mi SE 8.1 mph - N/A   Clear
2:15 AM 64.4 °F - 59.0 °F 83% 30.12 in 10.0 mi SE 8.1 mph - N/A   Clear
2:35 AM 64.4 °F - 59.0 °F 83% 30.12 in 10.0 mi SE 8.1 mph - N/A   Clear
2:55 AM 64.4 °F - 59.0 °F 83% 30.11 in 10.0 mi SE 8.1 mph - N/A   Clear
3:15 AM 64.4 °F - 59.0 °F 83% 30.11 in 10.0 mi SE 8.1 mph - N/A   Clear
3:35 AM 64.4 °F - 59.0 °F 83% 30.11 in 10.0 mi SE 6.9 mph - N/A   Clear
3:55 AM 62.6 °F - 59.0 °F 88% 30.12 in 10.0 mi SE 4.6 mph - N/A   Clear
4:15 AM 62.6 °F - 59.0 °F 88% 30.12 in 10.0 mi ESE 5.8 mph - N/A   Clear
4:35 AM 62.6 °F - 59.0 °F 88% 30.12 in 10.0 mi ESE 5.8 mph - N/A   Clear
4:55 AM 62.6 °F - 59.0 °F 88% 30.13 in 10.0 mi ESE 4.6 mph - N/A   Clear
5:15 AM 60.8 °F - 57.2 °F 88% 30.13 in 10.0 mi ESE 5.8 mph - N/A   Clear
5:35 AM 60.8 °F - 57.2 °F 88% 30.13 in 10.0 mi ESE 6.9 mph - N/A   Clear
5:55 AM 60.8 °F - 57.2 °F 88% 30.13 in 10.0 mi ESE 6.9 mph - N/A   Clear
6:15 AM 60.8 °F - 57.2 °F 88% 30.14 in 10.0 mi ESE 6.9 mph - N/A   Clear
6:35 AM 60.8 °F - 57.2 °F 88% 30.15 in 10.0 mi SE 6.9 mph - N/A   Clear
6:55 AM 60.8 °F - 57.2 °F 88% 30.15 in 10.0 mi ESE 8.1 mph - N/A   Clear
7:15 AM 60.8 °F - 57.2 °F 88% 30.15 in 10.0 mi SE 6.9 mph - N/A   Clear
7:35 AM 62.6 °F - 59.0 °F 88% 30.15 in 10.0 mi SE 8.1 mph - N/A   Clear
7:55 AM 64.4 °F - 59.0 °F 83% 30.15 in 10.0 mi SE 8.1 mph - N/A   Clear
8:15 AM 66.2 °F - 59.0 °F 78% 30.16 in 10.0 mi SE 6.9 mph - N/A   Clear
8:35 AM 68.0 °F - 59.0 °F 73% 30.16 in 10.0 mi SE 8.1 mph - N/A   Clear
8:55 AM 71.6 °F - 60.8 °F 69% 30.16 in 10.0 mi SSE 8.1 mph - N/A   Clear
9:15 AM 73.4 °F - 60.8 °F 65% 30.16 in 10.0 mi SSE 8.1 mph - N/A   Clear
9:35 AM 75.2 °F - 60.8 °F 61% 30.17 in 10.0 mi South 8.1 mph - N/A   Clear
9:55 AM 77.0 °F - 62.6 °F 61% 30.18 in 10.0 mi SSW 6.9 mph - N/A   Clear
10:15 AM 78.8 °F - 62.6 °F 57% 30.18 in 10.0 mi South 5.8 mph - N/A   Mostly Cloudy
10:35 AM 78.8 °F - 64.4 °F 61% 30.18 in 10.0 mi South 8.1 mph - N/A   Overcast
10:55 AM 78.8 °F - 64.4 °F 61% 30.18 in 10.0 mi South 6.9 mph - N/A   Mostly Cloudy
11:15 AM 78.8 °F - 64.4 °F 61% 30.18 in 10.0 mi SSW 6.9 mph - N/A   Scattered Clouds
11:35 AM 80.6 °F 82.3 °F 64.4 °F 58% 30.18 in 10.0 mi West 8.1 mph - N/A   Clear
11:55 AM 80.6 °F 82.3 °F 64.4 °F 58% 30.18 in 10.0 mi West 8.1 mph - N/A   Scattered Clouds
12:15 PM 78.8 °F - 64.4 °F 61% 30.18 in 10.0 mi NW 12.7 mph - N/A   Mostly Cloudy
12:35 PM 77.0 °F - 64.4 °F 65% 30.18 in 10.0 mi North 10.4 mph - N/A   Mostly Cloudy
12:55 PM 78.8 °F - 64.4 °F 61% 30.18 in 10.0 mi North 8.1 mph - N/A   Scattered Clouds
1:15 PM 78.8 °F - 64.4 °F 61% 30.18 in 10.0 mi North 9.2 mph - N/A   Mostly Cloudy
1:35 PM 78.8 °F - 64.4 °F 61% 30.17 in 10.0 mi North 9.2 mph - N/A   Overcast
2:15 PM 78.8 °F - 64.4 °F 61% 30.15 in 10.0 mi North 8.1 mph - N/A   Mostly Cloudy
2:35 PM 78.8 °F - 64.4 °F 61% 30.15 in 10.0 mi North 10.4 mph - N/A   Mostly Cloudy
2:55 PM 78.8 °F - 64.4 °F 61% 30.15 in 10.0 mi NNE 8.1 mph - N/A   Scattered Clouds
3:15 PM 78.8 °F - 64.4 °F 61% 30.15 in 10.0 mi North 8.1 mph - N/A   Scattered Clouds
3:35 PM 78.8 °F - 64.4 °F 61% 30.14 in 10.0 mi North 8.1 mph - N/A   Clear
3:55 PM 80.6 °F 82.7 °F 66.2 °F 61% 30.13 in 10.0 mi North 12.7 mph 17.3 mph N/A   Clear
4:15 PM 78.8 °F - 64.4 °F 61% 30.13 in 10.0 mi NNE 10.4 mph 16.1 mph N/A   Clear
4:35 PM 78.8 °F - 64.4 °F 61% 30.13 in 10.0 mi NE 10.4 mph 17.3 mph N/A   Clear
4:55 PM 77.0 °F - 64.4 °F 65% 30.13 in 10.0 mi North 12.7 mph 17.3 mph N/A   Mostly Cloudy
5:15 PM 77.0 °F - 64.4 °F 65% 30.14 in 10.0 mi North 12.7 mph 20.7 mph N/A   Mostly Cloudy
5:35 PM 75.2 °F - 64.4 °F 69% 30.15 in 10.0 mi North 15.0 mph 19.6 mph N/A   Overcast
5:55 PM 73.4 °F - 64.4 °F 73% 30.17 in 10.0 mi North 13.8 mph 18.4 mph N/A   Overcast
6:15 PM 69.8 °F - 59.0 °F 68% 30.19 in 10.0 mi NNW 15.0 mph 24.2 mph N/A   Overcast
6:35 PM 69.8 °F - 59.0 °F 68% 30.19 in 10.0 mi NNW 11.5 mph - N/A Thunderstorm Overcast
6:55 PM 66.2 °F - 59.0 °F 78% 30.19 in 10.0 mi North 12.7 mph 20.7 mph N/A Rain Light Rain
7:15 PM 64.4 °F - 59.0 °F 83% 30.19 in 7.0 mi North 15.0 mph - 0.01 in Rain Rain
7:35 PM 62.6 °F - 57.2 °F 82% 30.20 in 10.0 mi North 15.0 mph 20.7 mph 0.02 in Rain Light Rain
7:55 PM 60.8 °F - 57.2 °F 88% 30.20 in 10.0 mi North 12.7 mph - 0.02 in   Scattered Clouds
8:15 PM 60.8 °F - 55.4 °F 82% 30.21 in 10.0 mi North 15.0 mph 21.9 mph N/A   Mostly Cloudy
8:35 PM 60.8 °F - 55.4 °F 82% 30.22 in 10.0 mi NNE 12.7 mph 16.1 mph N/A   Scattered Clouds
8:55 PM 60.8 °F - 55.4 °F 82% 30.23 in 10.0 mi North 16.1 mph 21.9 mph N/A   Clear
9:15 PM 60.8 °F - 55.4 °F 82% 30.25 in 10.0 mi North 12.7 mph 18.4 mph N/A   Scattered Clouds
9:35 PM 60.8 °F - 55.4 °F 82% 30.25 in 10.0 mi North 10.4 mph 16.1 mph N/A   Overcast
9:55 PM 60.8 °F - 55.4 °F 82% 30.26 in 10.0 mi NNE 8.1 mph - N/A   Overcast
10:15 PM 60.8 °F - 55.4 °F 82% 30.26 in 10.0 mi NE 13.8 mph 19.6 mph N/A   Mostly Cloudy
10:35 PM 60.8 °F - 53.6 °F 77% 30.26 in 10.0 mi NE 13.8 mph 19.6 mph N/A   Mostly Cloudy
10:55 PM 59.0 °F - 55.4 °F 88% 30.26 in 10.0 mi NNE 10.4 mph 16.1 mph 0.01 in Rain Light Rain
11:15 PM 59.0 °F - 55.4 °F 88% 30.26 in 10.0 mi NE 8.1 mph - N/A Rain Light Rain
11:35 PM 59.0 °F - 55.4 °F 88% 30.26 in 10.0 mi NE 6.9 mph - N/A   Mostly Cloudy
11:55 PM 57.2 °F - 55.4 °F 94% 30.26 in 10.0 mi NNE 6.9 mph - N/A   Overcast